Preview of NWS' New Version of Forecast
This preview is not operational and should not be used for support decisions.

Regional Weather Roundup (RWR)

Issued by National Weather Service (NWS)

                            
000
ASPQ40 PGUM 200710
RWRPQ 
WEATHER ROUNDUP FOR THE MARIANAS AND MICRONESIA
NATIONAL WEATHER SERVICE TIYAN GU
500 PM CHST FRI SEP 20 2019

GUZ001>004-200800-
MARIANA ISLANDS-
  
CITY           SKY/WX    TMP DP  RH WIND       PRES   REMARKS
GUAM AIRPORT   MOSUNNY   81  75  83 NW8       29.76R                  
ANDERSEN AFB   PTSUNNY   82  75  78 NW7       29.76R                  
ROTA AIRPORT   PTSUNNY   81  75  83 W8        29.71S                  
TINIAN AP      LGT RAIN  82  79  89 CALM      29.72R HX  93           
SAIPAN AP      SUNNY     82  77  83 CALM      29.73R HX  91           

$$

PMZ161-200800-
REPUBLIC OF PALAU-
  
CITY           SKY/WX    TMP DP  RH WIND       PRES   REMARKS
KOROR AP       PTSUNNY   84  75  74 NW5       29.80R HX  92           
KOROR WSO      NOT AVBL                                               

$$

PMZ171>174-200800-
FEDERATED STATES OF MICRONESIA-
  
CITY           SKY/WX    TMP DP  RH WIND       PRES   REMARKS
YAP AIRPORT    PTSUNNY   86  75  70 NW8       29.81R HX  95           
CHUUK AP       MOSUNNY   86  81  84 VRB5      29.77R HX 102           
POHNPEI AP     NOT AVBL                                               
POHNPEI WSO    CLOUDY    84  75  74 W3        29.81R HX  92           
KOSRAE AP      NOT AVBL                                               

$$

PMZ181-200800-
REPUBLIC OF THE MARSHALL ISLANDS-
  
CITY           SKY/WX    TMP DP  RH WIND       PRES   REMARKS
KWAJALEIN AP   CLEAR     86  75  70 W9        29.76R HX  95           
MAJURO AP      MOCLDY    84  77  79 W10       29.78R HX  94           
MAJURO WSO     PTCLDY    86  75  70 W10       29.77R HX  95           

$$